Location: La Teuilière
(44.9351°N, 1.9047°E)
Time: 03:13:43
(UTC+00:00)

Daily predictions for brighter satellites

Satellite Brightness Start Highest point End
(mag) Time Altitude Azimuth Time Altitude Azimuth Time Altitude Azimuth
Cosmos 1758 3.4 00:00:05 10° N 00:03:41 70° NW 00:03:41 70° NW
Cosmos 1867 3.5 00:05:01 62° SSW 00:05:58 85° ESE 00:11:30 10° NE
Cosmos 1461 2.9 00:02:32 10° NW 00:06:31 81° NNW 00:06:31 81° NNW
Cosmos 2221 Rocket 3.4 00:06:47 87° SSW 00:06:51 89° WNW 00:11:17 10° N
Cosmos 1674 Rocket 3.7 00:06:55 62° E 00:06:55 62° E 00:11:11 10° NNE
Cosmos 2298 Rocket 4.4 00:07:41 46° SE 00:08:17 48° ESE 00:13:23 10° NNE
Cosmos 1674 3.0 00:10:51 60° NNW 00:10:51 60° NNW 00:14:05 10° N
USA 306 4.2 00:11:52 29° E 00:11:52 29° E 00:14:20 10° ENE
Cosmos 1238 Rocket 3.8 00:10:20 10° N 00:12:06 33° N 00:12:06 33° N
USA 307 4.2 00:15:20 28° E 00:15:20 28° E 00:17:45 10° ENE
ATLAS CENTAUR R/B 2.6 00:10:18 10° NW 00:13:59 35° W 00:13:59 35° W
SL-16 R/B 4.3 00:16:08 13° ESE 00:17:39 14° E 00:20:28 10° ENE
Cosmos 2322 Rocket 4.5 00:17:02 10° W 00:20:48 18° NW 00:24:36 10° N
Cosmos 1980 4.1 00:20:38 44° SE 00:21:34 49° ESE 00:26:59 10° NE
Cosmos 2333 Rocket 3.2 00:19:41 26° WSW 00:22:16 39° NW 00:27:36 10° NNE
Cosmos 1378 Rocket 3.4 00:22:19 83° SSE 00:22:27 87° ESE 00:26:55 10° N
Cosmos 2322 4.2 00:20:48 35° WSW 00:22:51 52° WNW 00:28:28 10° NNE
ATLAS 5 CENTAUR R/B 2.9 00:10:32 10° NW 00:23:09 88° NE 00:24:40 45° SE
Cosmos 468 4.4 00:18:09 10° NNW 00:23:24 86° ENE 00:24:27 58° SSE
CZ-4C R/B 3.0 00:16:20 10° NW 00:23:42 76° SW 00:27:53 34° SSE
Cosmos 1844 Rocket 4.4 00:23:02 10° WNW 00:26:29 17° W 00:26:32 17° W
USA 215 4.1 00:21:25 10° NE 00:27:38 48° NNW 00:33:51 10° W
NOSS 0 Rocket 3.9 00:29:22 50° S 00:31:04 75° ESE 00:37:19 10° NNE
PSLV R/B 4.1 00:30:15 10° N 00:34:29 49° WNW 00:35:00 46° W
USA 32 4.3 00:35:14 46° SE 00:36:31 60° E 00:41:41 10° NNE
Meteor 2-10 Rocket 4.2 00:33:24 10° N 00:38:56 52° ENE 00:41:17 31° SE
Cosmos 1975 Rocket 4.2 00:39:39 31° ESE 00:40:27 33° E 00:44:28 10° NNE
Cosmos 2151 Rocket 4.2 00:36:47 10° NNW 00:40:53 42° W 00:40:53 42° W
Cosmos 1745 Rocket 3.9 00:36:33 10° NNW 00:42:46 72° W 00:44:34 47° SSW
ADEOS Rocket 3.8 00:42:18 28° WSW 00:43:07 29° W 00:48:13 10° NNW
Cosmos 839 Rocket 4.2 00:37:38 10° NNW 00:44:03 85° ENE 00:49:12 22° SE
USA 308 3.0 00:44:46 61° ESE 00:44:46 61° ESE 00:48:32 10° ENE
Okean 2 Rocket 4.1 00:41:08 10° NNW 00:45:13 34° W 00:45:13 34° W
Cosmos 2219 Rocket 3.4 00:42:56 23° W 00:45:35 34° NW 00:50:40 10° N
Cosmos 1025 Rocket 4.3 00:47:03 29° ESE 00:47:56 31° E 00:51:45 10° NNE
Meteor 2-12 Rocket 4.3 00:44:16 10° N 00:50:23 87° W 00:52:27 44° S
Meteor 1-16 Rocket 4.4 00:44:44 10° NNW 00:50:34 61° W 00:52:02 47° SSW
GP-B 3.1 00:52:56 10° N 00:57:23 74° E 00:58:07 59° SSE
Meteor 2-5 Rocket 4.5 00:55:37 30° SE 00:57:56 45° E 01:03:19 10° NNE
Lacrosse 5 2.7 00:58:31 34° SE 00:58:54 34° SE 01:03:30 10° ENE
CZ-2D R/B 3.1 00:55:27 10° NNE 01:00:27 38° E 01:02:28 28° SE
Cosmos 1300 2.6 00:57:45 10° N 01:01:27 80° WNW 01:01:27 80° WNW
SL-14 R/B 3.5 01:02:27 53° WNW 01:02:27 53° WNW 01:06:15 10° N
USA 267 3.6 01:02:14 39° SSW 01:03:06 40° SW 01:09:13 10° WNW
Cosmos 883 Rocket 4.5 01:04:14 42° SSW 01:06:31 76° W 01:12:54 10° N
Cosmos 371 Rocket 3.6 01:06:03 45° WSW 01:07:11 57° WNW 01:12:00 10° NNE
Cosmos 2150 Rocket 4.3 01:06:08 42° WSW 01:07:35 57° WNW 01:12:41 10° NNE
USA 305 2.9 01:07:08 58° W 01:07:50 74° NNW 01:12:01 10° NE
NOSS 2-2 (C) 4.4 01:04:12 10° NW 01:09:26 62° SW 01:12:46 31° SSE
USA 229 DEB 4.0 01:03:43 10° NW 01:11:00 60° WSW 01:15:06 29° S
USA 229 4.0 01:03:50 10° NW 01:11:07 61° WSW 01:15:14 29° S
Cosmos 2237 Rocket 2.3 01:11:28 42° SW 01:13:26 72° WNW 01:19:09 10° NNE
COSMOS 2428 4.1 01:12:17 19° W 01:15:21 30° NW 01:20:19 10° N
Cosmos 405 Rocket 4.4 01:18:03 21° WNW 01:18:14 21° WNW 01:21:12 10° NNW
Cosmos 304 Rocket 3.8 01:17:17 49° SW 01:18:28 71° WNW 01:23:19 10° NNE
SL-16 R/B 3.0 01:14:42 15° SE 01:19:45 59° ENE 01:25:52 10° N
Cosmos 1437 Rocket 4.2 01:16:46 10° NW 01:19:16 24° WNW 01:19:16 24° WNW
Lacrosse 5 rocket 2.5 01:21:54 27° SE 01:21:54 27° SE 01:25:13 10° ENE
Cosmos 1125 Rocket 4.3 01:20:00 31° WSW 01:21:49 42° WNW 01:26:45 10° N
Okean 1 Rocket 4.1 01:20:03 10° NNW 01:23:54 30° W 01:24:04 30° W
SME Rocket 3.0 01:24:34 54° S 01:25:26 75° WSW 01:30:22 10° NNW
Cosmos 1953 3.7 01:23:23 10° NW 01:26:26 25° W 01:26:26 25° W
Cosmos 2074 Rocket 4.4 01:22:59 10° N 01:29:13 62° ENE 01:33:59 18° SSE
Resurs 1-4 Rocket 2.2 01:24:27 10° NNE 01:29:44 71° ESE 01:31:56 36° S
Cosmos 2297 4.4 01:27:56 10° NNW 01:33:36 54° ENE 01:39:12 10° SE
Cosmos 1943 Rocket 2.5 01:27:59 10° NNW 01:33:40 68° ENE 01:39:18 10° SE
MOZ.5/SAFIR/RUBIN 5/SL-8 4.1 01:33:59 42° SW 01:34:55 48° W 01:39:32 10° NNW
Cosmos 1709 Rocket 4.4 01:31:20 10° NNW 01:37:07 44° W 01:39:18 32° SW
Cosmos 2315 Rocket 4.4 01:35:34 32° SW 01:38:17 52° WNW 01:44:32 10° N
Cosmos 2184 Rocket 4.1 01:37:52 10° N 01:44:09 77° E 01:48:45 19° SSE
Cosmos 2278 Rocket 3.1 01:39:45 10° NW 01:44:35 29° WSW 01:45:23 28° WSW
ADEOS II 2.6 01:40:30 10° NNE 01:45:39 52° E 01:48:40 24° SSE
IDEFIX/ARIANE 42P 3.4 01:41:29 10° NNE 01:46:32 44° E 01:49:52 20° SSE
USA 306 3.8 01:47:34 21° W 01:49:58 43° NNW 01:53:59 10° NE
Cosmos 2084 Rocket 3.2 01:49:15 45° WSW 01:50:14 67° NW 01:54:02 10° NE
USA 307 3.7 01:51:04 22° W 01:53:26 46° NNW 01:57:29 10° NE
Thor Agena Rocket 4.4 01:48:53 10° N 01:53:48 40° WNW 01:56:09 26° WSW
ERBS 3.5 01:54:54 25° WNW 01:55:48 31° NNW 01:58:36 10° NNE
NPP 3.6 01:52:20 10° NNE 01:57:46 82° WNW 02:00:36 29° SSW
Cosmos 2369 Rocket 3.4 01:53:30 10° NNW 01:58:50 43° ENE 02:04:09 10° SE
SL-16 R/B 2.2 01:58:00 30° SSW 02:00:55 87° WNW 02:06:38 10° NNE
Cosmos 1455 Rocket 3.9 01:58:14 10° NNW 02:02:15 33° W 02:03:15 30° WSW
Cosmos 614 Rocket 4.2 01:57:29 10° NNW 02:02:41 70° ENE 02:07:52 10° SSE
CZ-4 R/B 4.0 01:58:07 10° N 02:02:41 57° WNW 02:04:41 31° SW
Cosmos 2228 4.2 01:58:44 10° N 02:02:53 40° ENE 02:06:57 10° SSE
EO 1 Del DPAF 3.6 02:00:21 10° NNE 02:03:47 51° E 02:05:16 29° SSE
Meteor 1-28 Rocket 3.3 02:03:36 22° SSE 02:05:52 73° ENE 02:09:36 10° N
COSMOS 2455 3.1 02:04:48 24° S 02:08:24 63° ESE 02:14:22 10° NE
Cosmos 1536 Rocket 3.5 02:08:02 28° S 02:10:21 85° E 02:14:47 10° N
CZ-4C R/B 4.3 02:06:30 10° WNW 02:11:38 19° WSW 02:12:59 18° WSW
Nadezhda 1 Rocket 4.0 02:15:05 20° S 02:19:45 87° W 02:26:05 10° N
Meteor 1-24 Rocket 4.2 02:17:04 24° SW 02:20:02 44° WNW 02:25:16 10° N
UNK 4.0 02:19:09 25° SSW 02:21:30 49° W 02:26:00 10° NNW
MSX 4.0 02:17:53 10° NNE 02:23:41 72° ESE 02:28:25 16° S
USA 308 4.3 02:20:31 11° W 02:24:14 34° NNW 02:28:04 10° NE
Cosmos 1025 Rocket 4.5 02:23:55 19° WSW 02:25:32 24° WNW 02:29:04 10° NNW
MOS 1 Rocket 3.3 02:23:22 25° SSW 02:25:36 50° W 02:29:48 10° NNW
YAOGAN 11 4.5 02:23:45 25° SSW 02:26:02 46° W 02:30:23 10° NNW
Cosmos 1455 2.7 02:22:36 10° NNW 02:26:05 40° W 02:27:23 29° SW
Cosmos 1271 Rocket 2.6 02:26:09 10° NNW 02:29:58 72° W 02:32:44 18° S
Cosmos 1606 Rocket 4.1 02:29:44 10° N 02:34:07 58° E 02:38:25 10° SSE
ALOS 4.3 02:33:59 10° NE 02:37:47 24° E 02:41:34 10° SSE
CZ-2C R/B 4.3 02:35:39 10° NE 02:39:58 27° E 02:44:09 10° SSE
CZ-2D R/B 3.2 02:35:40 10° N 02:40:22 31° WNW 02:43:47 16° WSW
Lacrosse 5 2.4 02:37:42 15° WSW 02:41:44 53° NW 02:46:44 10° NE
Helios 1B rocket 3.5 02:40:52 10° NNE 02:44:44 41° E 02:48:35 10° S
Cosmos 2341 Rocket 4.2 02:40:33 10° N 02:46:58 80° E 02:53:22 10° S
Cosmos 2154 Rocket 4.4 02:44:16 10° NNW 02:50:19 48° W 02:56:00 11° SSW
BREEZE-M DEB (TANK) 3.3 02:47:13 17° SW 02:50:35 42° SSE 02:53:01 10° E
Meteor 2-1 Rocket 4.3 02:45:41 10° N 02:51:31 85° E 02:57:09 10° S
Cosmos 407 Rocket 4.0 02:47:18 10° NNW 02:52:38 66° ENE 02:57:51 10° SSE
SL-8 Rocket 4.3 02:47:21 10° N 02:53:42 75° E 03:00:01 10° SSE
Cosmos 1943 3.4 02:50:42 12° SSW 02:55:56 71° ESE 03:01:37 10° NNE
Cosmos 1328 3.9 02:52:13 11° S 02:56:01 77° E 03:00:01 10° NNE
Helios 1A 3.7 02:53:26 16° SSW 02:56:17 34° W 03:00:10 10° NNW
Cosmos 2237 Rocket 4.4 02:55:19 10° WNW 02:58:34 15° NW 03:01:51 10° N
Genesis I 4.1 02:55:56 10° NNW 02:59:57 55° NE 03:03:52 10° SE
Lacrosse 5 rocket 2.0 02:57:25 13° WSW 03:00:40 45° NNW 03:04:39 10° NE
Cosmos 1140 Rocket 3.6 02:58:18 10° NNW 03:03:36 85° ENE 03:08:50 10° SSE
SL-16 R/B 3.6 02:59:47 14° SW 03:03:43 25° W 03:08:45 10° NW
Lacrosse 4 Rocket 3.8 03:05:25 10° SSE 03:08:20 18° ESE 03:11:12 10° ENE
Resurs 1-4 Rocket 3.9 03:05:30 10° NNW 03:08:59 18° WNW 03:12:28 10° W
Cosmos 1892 Rocket 3.7 03:05:21 10° S 03:09:48 85° E 03:14:18 10° N
SeaSat 1 4.2 03:05:40 10° NE 03:09:51 27° ESE 03:14:01 10° SSE
Cosmos 1726 Rocket 3.5 03:09:18 10° NNW 03:13:42 70° W 03:18:03 10° S
Cosmos 1703 4.4 03:11:07 13° SW 03:13:59 28° WNW 03:17:25 10° NNW
Cosmos 1943 Rocket 3.6 03:12:57 10° NW 03:16:49 19° W 03:20:40 10° SW
FENGYUN 3A 3.9 03:12:30 10° NNE 03:17:54 72° ESE 03:23:15 10° S
Cosmos 2263 4.2 03:12:19 10° NNW 03:17:57 66° WSW 03:23:36 10° SSE
NOSS 3-3 (A) 3.9 03:13:34 11° SW 03:18:59 84° NW 03:25:30 10° NE
NOSS 3-3 (C) 3.9 03:13:40 11° SW 03:19:04 85° NW 03:25:36 10° NE
Cosmos 1825 3.9 03:21:21 10° SSE 03:24:40 31° E 03:28:00 10° NNE
ADEOS II 3.5 03:20:53 10° N 03:24:58 24° WNW 03:29:03 10° WSW
IDEFIX/ARIANE 42P 3.8 03:21:29 10° N 03:25:52 27° WNW 03:30:13 10° WSW
SL-24 DEB 4.3 03:21:26 10° S 03:26:09 71° W 03:30:52 10° N
ARIANE 5 R/B 3.1 03:23:07 10° NNE 03:28:08 59° ESE 03:33:04 10° S
Cosmos 1624 Rocket 4.3 03:23:02 10° SSW 03:28:20 74° ESE 03:33:39 10° NNE
CBERS-1 4.2 03:26:00 10° N 03:31:01 58° WNW 03:36:02 10° SSW
Cosmos 2218 Rocket 4.1 03:29:19 10° NNW 03:35:30 65° W 03:41:43 10° S
DNEPR-1 R/B 3.7 03:32:56 10° SW 03:37:07 68° NW 03:41:49 10° NNE
MOS 1-B Rocket 4.0 03:31:50 10° S 03:37:17 52° W 03:42:55 10° NNW
Cosmos 2056 Rocket 3.6 03:34:45 10° SSW 03:39:55 89° W 03:45:14 10° NNE
DEBRIS 3.2 03:33:55 10° WNW 03:42:04 87° NNE 03:44:53 10° ESE
